Погода в Мамыкове

Россия / Республика Татарстан     54°38′23″N   50°36′17″E
темп.,
°C
ветер,
м/с
пор.,
м/с
влажн.,
%
обл.,
%
осадки,
мм/ч
давл.,
гПа
погр.,
м
13 мая, чт
чт1300:00+16вюв225099 0.0 102512
03:00+15вюв355438 0.0 102568
06:00+17вюв39597 0.0 1025242
09:00+22юв584314 0.0 1025788
12:00+25юв57385 0.0 10241290
15:00+26юв574269 0.0 10231443
18:00+22юв485883 0.0 1023205
21:00+19юв41260100 0.0 1022237
14 мая, пт
пт1400:00+18юв4136281 0.0 1023260
03:00+16юв412619 0.0 1023242
06:00+18ююв414585 0.1 1023408
09:00+23ююв69425 0.1 1022659
12:00+27ю6103451 0.0 10221266
15:00+27ю6935100 0.0 10211404
18:00+23ю49515 0.0 1021205
21:00+18ююв366438 0.0 102176
15 мая, сб
сб1500:00+17ю396466 0.0 1021153
03:00+16ю3860100 0.0 1021126
06:00+18ю4115453 0.0 1021272
09:00+25ю593734 0.0 1021497
12:00+28ю683133 0.0 10211062
15:00+29ю583131 0.0 10201118
18:00+24ю36465 0.0 1019108
21:00+19ю33540 0.0 101933
16 мая, вс
вс1600:00+17ю34510 0.0 101957
03:00+16ю34550 0.0 101963
06:00+19ююв411575 0.0 1019269
09:00+25ю59395 0.0 1018587
12:00+29ю58315 0.0 10182185
15:00+29ююз58315 0.0 10172194
18:00+24юз38486 0.0 1016206
21:00+19ююз3758100 0.0 101799
17 мая, пн
пн1700:00+17ююз335945 0.0 101735
03:00+16ююз11605 0.0 101811
06:00+20ю235728 0.0 1018105
09:00+26юз48415 0.0 1018755
12:00+29зюз573419 0.0 10171947
15:00+26зюз365075 0.0 1018196
18:00+26сз22555 0.0 101721
21:00+20ююв226511 0.0 101816